| time (UTC) | temp F | wind direction | speed knots | gust knots | rain 1hr in | rain 24hr in | rain mn in | humidity % | barometer mb |
| 20260505192031 | 80 | 175 | 4.3 | 10.4 | 0.00 | 0.00 | 0.00 | 76 | 1004.2 |
| 20260505191507 | 79 | 170 | 2.6 | 10.4 | 0.00 | 0.00 | 0.00 | 77 | 1004.3 |
| 20260505191132 | 80 | 173 | 5.2 | 9.6 | 0.00 | 0.00 | 0.00 | 76 | 1004.0 |
| 20260505190231 | 79 | 177 | 4.3 | 9.6 | 0.00 | 0.00 | 0.00 | 76 | 1004.4 |
| 20260505190005 | 79 | 185 | 4.3 | 9.6 | 0.00 | 0.00 | 0.00 | 77 | 1004.3 |
| 20260505185331 | 79 | 166 | 4.3 | 7.0 | 0.00 | 0.00 | 0.00 | 76 | 1003.9 |
| 20260505184608 | 79 | 171 | 4.3 | 10.4 | 0.00 | 0.00 | 0.00 | 76 | 1003.6 |
| 20260505184432 | 80 | 173 | 6.1 | 10.4 | 0.00 | 0.00 | 0.00 | 75 | 1003.7 |
| 20260505183531 | 79 | 178 | 6.1 | 13.9 | 0.00 | 0.00 | 0.00 | 77 | 1003.5 |
| 20260505183110 | 78 | 178 | 7.0 | 12.2 | 0.00 | 0.00 | 0.00 | 78 | 1003.7 |
| 20260505182631 | 77 | 170 | 5.2 | 10.4 | 0.00 | 0.00 | 0.00 | 81 | 1003.7 |
| 20260505181732 | 76 | 169 | 5.2 | 7.8 | 0.00 | 0.00 | 0.00 | 81 | 1004.6 |
| 20260505181607 | 76 | 162 | 4.3 | 11.3 | 0.00 | 0.00 | 0.00 | 80 | 1004.7 |
| 20260505180832 | 76 | 169 | 5.2 | 8.7 | 0.00 | 0.00 | 0.00 | 82 | 1004.8 |
| 20260505180004 | 75 | 161 | 5.2 | 9.6 | 0.00 | 0.00 | 0.00 | 82 | 1004.8 |
| 20260505175932 | 76 | 175 | 5.2 | 9.6 | 0.00 | 0.00 | 0.00 | 82 | 1004.8 |
| 20260505175031 | 75 | 167 | 5.2 | 9.6 | 0.00 | 0.00 | 0.00 | 82 | 1004.9 |
| 20260505174504 | 75 | 169 | 3.5 | 9.6 | 0.00 | 0.00 | 0.00 | 83 | 1004.9 |
| 20260505174131 | 75 | 177 | 4.3 | 9.6 | 0.00 | 0.00 | 0.00 | 83 | 1004.8 |
| 20260505173231 | 74 | 179 | 5.2 | 10.4 | 0.00 | 0.00 | 0.00 | 84 | 1004.8 |
| 20260505173030 | 74 | 196 | 4.3 | 10.4 | 0.00 | 0.00 | 0.00 | 83 | 1004.8 |
| 20260505172331 | 74 | 175 | 4.3 | 8.7 | 0.00 | 0.00 | 0.00 | 84 | 1004.7 |
| 20260505171504 | 73 | 194 | 4.3 | 7.8 | 0.00 | 0.00 | 0.00 | 85 | 1004.9 |
| 20260505171431 | 74 | 172 | 5.2 | 7.8 | 0.00 | 0.00 | 0.00 | 85 | 1004.9 |
| 20260505170532 | 73 | 174 | 5.2 | 9.6 | 0.00 | 0.00 | 0.00 | 85 | 1004.9 |
| 20260505170004 | 72 | 183 | 4.3 | 7.8 | 0.00 | 0.00 | 0.00 | 86 | 1005.0 |
| 20260505165632 | 73 | 182 | 5.2 | 10.4 | 0.00 | 0.00 | 0.00 | 85 | 1004.9 |
| 20260505164732 | 73 | 161 | 5.2 | 8.7 | 0.00 | 0.00 | 0.00 | 86 | 1005.0 |
| 20260505164510 | 72 | 161 | 5.2 | 8.7 | 0.00 | 0.00 | 0.00 | 87 | 1005.0 |
| 20260505163832 | 72 | 178 | 5.2 | 8.7 | 0.00 | 0.00 | 0.00 | 87 | 1005.1 |
| 20260505163106 | 72 | 200 | 3.5 | 9.6 | 0.00 | 0.00 | 0.00 | 87 | 1005.1 |
| 20260505162931 | 72 | 168 | 5.2 | 9.6 | 0.00 | 0.00 | 0.00 | 87 | 1004.8 |
| 20260505162032 | 72 | 174 | 5.2 | 9.6 | 0.00 | 0.00 | 0.00 | 88 | 1004.9 |
| 20260505161604 | 71 | 186 | 5.2 | 10.4 | 0.00 | 0.00 | 0.00 | 88 | 1004.9 |
| 20260505161131 | 71 | 168 | 5.2 | 10.4 | 0.00 | 0.00 | 0.00 | 88 | 1004.8 |
| 20260505160231 | 71 | 170 | 5.2 | 9.6 | 0.00 | 0.00 | 0.00 | 88 | 1004.9 |
| 20260505153009 | 70 | 182 | 5.2 | 8.7 | 0.00 | 0.00 | 0.00 | 88 | 1005.2 |
| 20260505152631 | 70 | 163 | 4.3 | 7.0 | 0.00 | 0.00 | 0.00 | 89 | 1005.2 |
| 20260505151732 | 70 | 165 | 4.3 | 7.8 | 0.00 | 0.00 | 0.00 | 89 | 1005.5 |
| 20260505151512 | 69 | 136 | 3.5 | 7.0 | 0.00 | 0.00 | 0.00 | 89 | 1005.5 |
| 20260505150831 | 70 | 171 | 5.2 | 8.7 | 0.00 | 0.00 | 0.00 | 89 | 1005.5 |
| 20260505140532 | 69 | 163 | 5.2 | 10.4 | 0.00 | 0.00 | 0.00 | 89 | 1005.4 |
| 20260505130231 | 68 | 169 | 3.5 | 7.0 | 0.00 | 0.00 | 0.00 | 89 | 1005.0 |
| 20260505130104 | 67 | 188 | 4.3 | 7.0 | 0.00 | 0.00 | 0.00 | 89 | 1005.0 |
| 20260505124510 | 67 | 161 | 3.5 | 7.0 | 0.00 | 0.00 | 0.00 | 88 | 1005.1 |
| 20260505123531 | 68 | 167 | 3.5 | 8.7 | 0.00 | 0.00 | 0.00 | 88 | 1005.2 |
| 20260505123005 | 67 | 171 | 3.5 | 8.7 | 0.00 | 0.00 | 0.00 | 88 | 1005.1 |
| 20260505122631 | 68 | 173 | 4.3 | 8.7 | 0.00 | 0.00 | 0.00 | 88 | 1005.0 |
| 20260505121503 | 67 | 150 | 2.6 | 6.1 | 0.00 | 0.00 | 0.00 | 87 | 1005.0 |
| 20260505120831 | 68 | 168 | 4.3 | 7.0 | 0.00 | 0.00 | 0.00 | 87 | 1004.9 |
| 20260505120106 | 68 | 182 | 3.5 | 7.8 | 0.00 | 0.00 | 0.00 | 86 | 1004.7 |
| 20260505115031 | 68 | 175 | 2.6 | 5.2 | 0.00 | 0.00 | 0.00 | 86 | 1004.8 |
| 20260505114603 | 67 | 167 | 2.6 | 6.1 | 0.00 | 0.00 | 0.00 | 86 | 1004.8 |
| 20260505114131 | 68 | 174 | 3.5 | 7.0 | 0.00 | 0.00 | 0.00 | 86 | 1004.8 |
| 20260505113231 | 68 | 170 | 4.3 | 7.8 | 0.00 | 0.00 | 0.00 | 86 | 1004.6 |
| 20260505113004 | 67 | 175 | 2.6 | 7.8 | 0.00 | 0.00 | 0.00 | 86 | 1004.6 |
| 20260505112331 | 68 | 176 | 4.3 | 7.8 | 0.00 | 0.00 | 0.00 | 86 | 1004.5 |
| 20260505111604 | 67 | 157 | 3.5 | 10.4 | 0.00 | 0.00 | 0.00 | 85 | 1004.4 |
| 20260505111431 | 68 | 173 | 4.3 | 7.8 | 0.00 | 0.00 | 0.00 | 85 | 1004.4 |
| 20260505110531 | 68 | 169 | 5.2 | 8.7 | 0.00 | 0.00 | 0.00 | 85 | 1004.3 |
| 20260505101605 | 67 | 163 | 3.5 | 10.4 | 0.00 | 0.00 | 0.00 | 84 | 1004.5 |
| 20260505101131 | 68 | 179 | 5.2 | 10.4 | 0.00 | 0.00 | 0.00 | 84 | 1004.4 |
| 20260505100231 | 68 | 176 | 4.3 | 8.7 | 0.00 | 0.00 | 0.00 | 84 | 1004.4 |
| 20260505100105 | 67 | 192 | 6.1 | 7.8 | 0.00 | 0.00 | 0.00 | 84 | 1004.4 |
| 20260505095331 | 68 | 173 | 4.3 | 9.6 | 0.00 | 0.00 | 0.00 | 84 | 1004.3 |
| 20260505094607 | 67 | 173 | 3.5 | 9.6 | 0.00 | 0.00 | 0.00 | 83 | 1004.5 |
| 20260505093531 | 68 | 166 | 5.2 | 9.6 | 0.00 | 0.00 | 0.00 | 83 | 1004.5 |
| 20260505093112 | 67 | 163 | 5.2 | 9.6 | 0.00 | 0.00 | 0.00 | 83 | 1004.5 |
| 20260505092631 | 68 | 169 | 4.3 | 7.8 | 0.00 | 0.00 | 0.00 | 83 | 1004.5 |
| 20260505091731 | 68 | 176 | 5.2 | 9.6 | 0.00 | 0.00 | 0.00 | 83 | 1004.7 |
| 20260505091509 | 67 | 154 | 4.3 | 9.6 | 0.00 | 0.00 | 0.00 | 83 | 1004.9 |
| 20260505090831 | 68 | 173 | 5.2 | 9.6 | 0.00 | 0.00 | 0.00 | 83 | 1004.8 |
| 20260505085931 | 68 | 174 | 7.0 | 13.0 | 0.00 | 0.00 | 0.00 | 82 | 1004.8 |
| 20260505084506 | 67 | 173 | 3.5 | 12.2 | 0.00 | 0.00 | 0.00 | 82 | 1004.9 |
| 20260505083231 | 67 | 164 | 6.1 | 12.2 | 0.00 | 0.00 | 0.00 | 83 | 1004.7 |
| 20260505083005 | 67 | 165 | 7.0 | 12.2 | 0.00 | 0.00 | 0.00 | 82 | 1004.8 |
| 20260505082331 | 67 | 168 | 5.2 | 11.3 | 0.00 | 0.00 | 0.00 | 82 | 1004.8 |
| 20260505081504 | 67 | 174 | 7.0 | 11.3 | 0.00 | 0.00 | 0.00 | 82 | 1005.0 |
| 20260505081431 | 67 | 163 | 4.3 | 11.3 | 0.00 | 0.00 | 0.00 | 82 | 1005.0 |
| 20260505080531 | 67 | 161 | 5.2 | 8.7 | 0.00 | 0.00 | 0.00 | 82 | 1005.1 |
| 20260505080005 | 67 | 173 | 6.1 | 8.7 | 0.00 | 0.00 | 0.00 | 82 | 1005.2 |
| 20260505074731 | 67 | 160 | 4.3 | 8.7 | 0.00 | 0.00 | 0.00 | 82 | 1005.2 |
| 20260505074613 | 67 | 167 | 5.2 | 7.0 | 0.00 | 0.00 | 0.00 | 82 | 1005.2 |
| 20260505073831 | 67 | 167 | 4.3 | 7.8 | 0.00 | 0.00 | 0.00 | 81 | 1005.3 |
| 20260505073004 | 67 | 137 | 4.3 | 7.8 | 0.00 | 0.00 | 0.00 | 81 | 1005.5 |
| 20260505072031 | 68 | 153 | 3.5 | 9.6 | 0.00 | 0.00 | 0.00 | 80 | 1005.5 |
| 20260505071505 | 67 | 163 | 3.5 | 8.7 | 0.00 | 0.00 | 0.00 | 80 | 1005.7 |
| 20260505071131 | 68 | 159 | 4.3 | 7.0 | 0.00 | 0.00 | 0.00 | 80 | 1005.7 |
| 20260505070104 | 67 | 160 | 3.5 | 7.0 | 0.00 | 0.00 | 0.00 | 79 | 1005.9 |
| 20260505065331 | 68 | 159 | 4.3 | 7.0 | 0.00 | 0.00 | 0.00 | 79 | 1005.8 |
| 20260505064505 | 67 | 128 | 4.3 | 8.7 | 0.00 | 0.00 | 0.00 | 79 | 1006.1 |
| 20260505064431 | 68 | 158 | 4.3 | 8.7 | 0.00 | 0.00 | 0.00 | 79 | 1005.9 |
| 20260505063531 | 68 | 158 | 3.5 | 6.1 | 0.00 | 0.00 | 0.00 | 78 | 1006.1 |
| 20260505063005 | 67 | 165 | 3.5 | 7.0 | 0.00 | 0.00 | 0.00 | 78 | 1006.3 |
| 20260505062631 | 68 | 161 | 3.5 | 6.1 | 0.00 | 0.00 | 0.00 | 78 | 1006.1 |
| 20260505061517 | 67 | 193 | 2.6 | 5.2 | 0.00 | 0.00 | 0.00 | 77 | 1006.4 |
| 20260505060831 | 68 | 163 | 2.6 | 5.2 | 0.00 | 0.00 | 0.00 | 76 | 1006.3 |
| 20260505060004 | 68 | 161 | 2.6 | 5.2 | 0.00 | 0.00 | 0.00 | 75 | 1006.6 |
| 20260505055931 | 68 | 164 | 3.5 | 5.2 | 0.00 | 0.00 | 0.00 | 75 | 1006.5 |
| 20260505055031 | 68 | 161 | 3.5 | 5.2 | 0.00 | 0.00 | 0.00 | 74 | 1006.5 |
| 20260505054504 | 68 | 186 | 1.7 | 5.2 | 0.00 | 0.00 | 0.00 | 74 | 1006.7 |
| 20260505054131 | 69 | 160 | 3.5 | 6.1 | 0.00 | 0.00 | 0.00 | 74 | 1006.5 |
| 20260505053231 | 69 | 159 | 3.5 | 7.0 | 0.00 | 0.00 | 0.00 | 73 | 1006.7 |
| 20260505053004 | 68 | 165 | 3.5 | 7.0 | 0.00 | 0.00 | 0.00 | 74 | 1006.8 |
| 20260505052331 | 69 | 164 | 3.5 | 6.1 | 0.00 | 0.00 | 0.00 | 73 | 1006.7 |
| 20260505051607 | 68 | 206 | 3.5 | 7.0 | 0.00 | 0.00 | 0.00 | 73 | 1006.9 |
| 20260505051431 | 69 | 156 | 3.5 | 7.8 | 0.00 | 0.00 | 0.00 | 73 | 1006.6 |
| 20260505050531 | 69 | 156 | 3.5 | 6.1 | 0.00 | 0.00 | 0.00 | 73 | 1006.7 |
| 20260505050104 | 68 | 177 | 3.5 | 5.2 | 0.00 | 0.00 | 0.00 | 72 | 1006.9 |
| 20260505041603 | 68 | 155 | 2.6 | 5.2 | 0.00 | 0.00 | 0.00 | 70 | 1007.2 |
| 20260505041131 | 68 | 156 | 2.6 | 4.3 | 0.00 | 0.00 | 0.00 | 70 | 1007.1 |
| 20260505040230 | 68 | 154 | 2.6 | 4.3 | 0.00 | 0.00 | 0.00 | 70 | 1007.1 |
| 20260505035331 | 68 | 149 | 2.6 | 4.3 | 0.00 | 0.00 | 0.00 | 70 | 1007.2 |
| 20260505034605 | 68 | 152 | 2.6 | 5.2 | 0.00 | 0.00 | 0.00 | 70 | 1007.3 |
| 20260505034431 | 68 | 150 | 1.7 | 5.2 | 0.00 | 0.00 | 0.00 | 70 | 1007.1 |
| 20260505033531 | 68 | 156 | 1.7 | 3.5 | 0.00 | 0.00 | 0.00 | 70 | 1007.3 |
| 20260505033003 | 68 | 159 | 0.0 | 3.5 | 0.00 | 0.00 | 0.00 | 70 | 1007.5 |
| 20260505032631 | 68 | 155 | 0.9 | 3.5 | 0.00 | 0.00 | 0.00 | 70 | 1007.3 |
| 20260505031731 | 68 | 163 | 0.9 | 4.3 | 0.00 | 0.00 | 0.00 | 70 | 1007.2 |
| 20260505031619 | 68 | 189 | 1.7 | 4.3 | 0.00 | 0.00 | 0.00 | 70 | 1007.4 |
| 20260505030830 | 69 | 164 | 0.0 | 2.6 | 0.00 | 0.00 | 0.00 | 70 | 1007.1 |
| 20260505030005 | 68 | 165 | 0.0 | 1.7 | 0.00 | 0.00 | 0.00 | 69 | 1007.2 |
| 20260505025931 | 69 | 164 | 0.9 | 2.6 | 0.00 | 0.00 | 0.00 | 69 | 1007.0 |
| 20260505025031 | 69 | 164 | 0.9 | 2.6 | 0.00 | 0.00 | 0.00 | 69 | 1006.9 |
| 20260505024510 | 69 | 165 | 0.0 | 2.6 | 0.00 | 0.00 | 0.00 | 69 | 1007.2 |
| 20260505024131 | 69 | 164 | 0.0 | 2.6 | 0.00 | 0.00 | 0.00 | 69 | 1007.0 |
| 20260505023104 | 69 | 165 | 0.0 | 0.0 | 0.00 | 0.00 | 0.00 | 67 | 1007.2 |
| 20260505022331 | 70 | 164 | 0.0 | 1.7 | 0.00 | 0.00 | 0.00 | 67 | 1006.9 |
| 20260505021509 | 69 | 165 | 0.9 | 2.6 | 0.00 | 0.00 | 0.00 | 67 | 1006.9 |
| 20260505021431 | 70 | 164 | 1.7 | 3.5 | 0.00 | 0.00 | 0.00 | 67 | 1006.7 |
| 20260505020530 | 71 | 164 | 0.9 | 3.5 | 0.00 | 0.00 | 0.00 | 66 | 1006.5 |
| 20260505020004 | 71 | 165 | 0.0 | 1.7 | 0.00 | 0.00 | 0.00 | 65 | 1006.6 |
| 20260505015630 | 71 | 164 | 0.0 | 1.7 | 0.00 | 0.00 | 0.00 | 64 | 1006.5 |
| 20260505014730 | 72 | 164 | 1.7 | 3.5 | 0.00 | 0.00 | 0.00 | 64 | 1006.3 |
| 20260505014607 | 71 | 165 | 0.0 | 3.5 | 0.00 | 0.00 | 0.00 | 64 | 1006.4 |
| 20260505013830 | 72 | 164 | 0.9 | 3.5 | 0.00 | 0.00 | 0.00 | 63 | 1006.2 |
| 20260505013004 | 72 | 165 | 0.9 | 3.5 | 0.00 | 0.00 | 0.00 | 63 | 1006.6 |
| 20260505012931 | 72 | 164 | 1.7 | 3.5 | 0.00 | 0.00 | 0.00 | 63 | 1006.4 |
| 20260505012030 | 72 | 175 | 3.5 | 5.2 | 0.00 | 0.00 | 0.00 | 62 | 1006.2 |
| 20260505011507 | 72 | 172 | 2.6 | 7.0 | 0.00 | 0.00 | 0.00 | 62 | 1006.4 |
| 20260505011130 | 73 | 171 | 3.5 | 7.0 | 0.00 | 0.00 | 0.00 | 62 | 1006.2 |
| 20260505010230 | 73 | 175 | 4.3 | 6.1 | 0.00 | 0.00 | 0.00 | 61 | 1006.1 |
| 20260505010105 | 73 | 193 | 3.5 | 6.1 | 0.00 | 0.00 | 0.00 | 61 | 1006.4 |
| 20260505005331 | 74 | 175 | 4.3 | 7.0 | 0.00 | 0.00 | 0.00 | 60 | 1006.2 |
| 20260505004606 | 74 | 182 | 2.6 | 7.8 | 0.00 | 0.00 | 0.00 | 60 | 1006.3 |
| 20260505004430 | 74 | 170 | 4.3 | 7.0 | 0.00 | 0.00 | 0.00 | 59 | 1006.1 |
| 20260505003530 | 75 | 176 | 5.2 | 7.8 | 0.00 | 0.00 | 0.00 | 58 | 1006.2 |
| 20260505003004 | 74 | 205 | 3.5 | 10.4 | 0.00 | 0.00 | 0.00 | 58 | 1006.5 |
| 20260505002630 | 75 | 171 | 5.2 | 8.7 | 0.00 | 0.00 | 0.00 | 58 | 1006.2 |
| 20260505001730 | 75 | 175 | 6.1 | 9.6 | 0.00 | 0.00 | 0.00 | 58 | 1006.4 |
| 20260505001504 | 75 | 180 | 6.1 | 13.0 | 0.00 | 0.00 | 0.00 | 58 | 1006.7 |
| 20260505000830 | 75 | 169 | 6.1 | 13.0 | 0.00 | 0.00 | 0.00 | 57 | 1006.4 |
| 20260505000108 | 75 | 159 | 3.5 | 9.6 | 0.00 | 0.00 | 0.00 | 58 | 1006.7 |
| 20260504235930 | 76 | 179 | 5.2 | 9.6 | 0.00 | 0.00 | 0.00 | 58 | 1006.5 |
| 20260504235031 | 76 | 167 | 4.3 | 8.7 | 0.00 | 0.00 | 0.00 | 58 | 1006.5 |
| 20260504234605 | 76 | 174 | 4.3 | 10.4 | 0.00 | 0.00 | 0.00 | 58 | 1006.7 |
| 20260504234130 | 76 | 176 | 5.2 | 10.4 | 0.00 | 0.00 | 0.00 | 57 | 1006.6 |
| 20260504233230 | 76 | 167 | 4.3 | 10.4 | 0.00 | 0.00 | 0.00 | 56 | 1006.6 |
| 20260504233006 | 76 | 155 | 5.2 | 10.4 | 0.00 | 0.00 | 0.00 | 57 | 1006.8 |
| 20260504232330 | 77 | 173 | 5.2 | 9.6 | 0.00 | 0.00 | 0.00 | 56 | 1006.7 |
| 20260504231504 | 76 | 178 | 4.3 | 8.7 | 0.00 | 0.00 | 0.00 | 57 | 1006.9 |
| 20260504230530 | 77 | 163 | 7.0 | 12.2 | 0.00 | 0.00 | 0.00 | 56 | 1006.8 |
| 20260504230111 | 77 | 159 | 7.8 | 13.9 | 0.00 | 0.00 | 0.00 | 55 | 1007.0 |
| 20260504225630 | 78 | 165 | 7.8 | 13.0 | 0.00 | 0.00 | 0.00 | 55 | 1006.9 |
| 20260504224730 | 78 | 162 | 7.8 | 14.8 | 0.00 | 0.00 | 0.00 | 55 | 1007.1 |
| 20260504224604 | 78 | 182 | 7.0 | 14.8 | 0.00 | 0.00 | 0.00 | 54 | 1007.3 |
| 20260504223830 | 79 | 160 | 7.0 | 12.2 | 0.00 | 0.00 | 0.00 | 54 | 1007.1 |
| 20260504223104 | 78 | 161 | 6.1 | 12.2 | 0.00 | 0.00 | 0.00 | 53 | 1007.3 |
| 20260504222931 | 79 | 165 | 7.0 | 12.2 | 0.00 | 0.00 | 0.00 | 53 | 1007.2 |
| 20260504222031 | 79 | 165 | 6.1 | 13.9 | 0.00 | 0.00 | 0.00 | 55 | 1007.3 |
| 20260504221609 | 79 | 179 | 5.2 | 13.9 | 0.00 | 0.00 | 0.00 | 54 | 1007.5 |
| 20260504221131 | 79 | 171 | 6.1 | 13.9 | 0.00 | 0.00 | 0.00 | 54 | 1007.3 |
| 20260504220230 | 79 | 170 | 6.1 | 10.4 | 0.00 | 0.00 | 0.00 | 54 | 1007.5 |
| 20260504220005 | 78 | 177 | 5.2 | 11.3 | 0.00 | 0.00 | 0.00 | 54 | 1007.7 |
| 20260504215330 | 79 | 168 | 8.7 | 18.2 | 0.00 | 0.00 | 0.00 | 53 | 1007.6 |
| 20260504214606 | 79 | 196 | 6.1 | 14.8 | 0.00 | 0.00 | 0.00 | 54 | 1007.8 |
| 20260504214430 | 79 | 152 | 8.7 | 14.8 | 0.00 | 0.00 | 0.00 | 54 | 1007.6 |
| 20260504213530 | 80 | 169 | 7.0 | 13.9 | 0.00 | 0.00 | 0.00 | 50 | 1007.7 |
| 20260504213003 | 80 | 154 | 4.3 | 13.0 | 0.00 | 0.00 | 0.00 | 53 | 1008.1 |
| 20260504212630 | 80 | 169 | 6.1 | 15.6 | 0.00 | 0.00 | 0.00 | 52 | 1007.9 |
| 20260504211604 | 80 | 168 | 8.7 | 16.5 | 0.00 | 0.00 | 0.00 | 51 | 1008.3 |
| 20260504210830 | 80 | 162 | 7.8 | 13.9 | 0.00 | 0.00 | 0.00 | 52 | 1008.1 |
| 20260504210007 | 80 | 153 | 8.7 | 16.5 | 0.00 | 0.00 | 0.00 | 51 | 1008.6 |
| 20260504205930 | 80 | 169 | 8.7 | 16.5 | 0.00 | 0.00 | 0.00 | 50 | 1008.4 |
| 20260504205030 | 81 | 164 | 7.0 | 13.9 | 0.00 | 0.00 | 0.00 | 49 | 1008.7 |
| 20260504204619 | 80 | 157 | 6.1 | 12.2 | 0.00 | 0.00 | 0.00 | 53 | 1008.9 |
| 20260504204130 | 80 | 169 | 8.7 | 12.2 | 0.00 | 0.00 | 0.00 | 50 | 1008.8 |
| 20260504203106 | 80 | 174 | 8.7 | 13.9 | 0.00 | 0.00 | 0.00 | 49 | 1009.1 |
| 20260504201505 | 80 | 169 | 7.0 | 15.6 | 0.00 | 0.00 | 0.00 | 50 | 1009.4 |
| 20260504201430 | 80 | 155 | 7.0 | 15.6 | 0.00 | 0.00 | 0.00 | 50 | 1009.2 |
| 20260504200004 | 80 | 175 | 7.8 | 14.8 | 0.00 | 0.00 | 0.00 | 48 | 1009.6 |
| 20260504195630 | 80 | 170 | 7.0 | 13.9 | 0.00 | 0.00 | 0.00 | 47 | 1009.7 |
| 20260504194730 | 80 | 167 | 7.0 | 12.2 | 0.00 | 0.00 | 0.00 | 51 | 1009.8 |
| 20260504194507 | 80 | 169 | 6.1 | 12.2 | 0.00 | 0.00 | 0.00 | 53 | 1010.1 |
| 20260504193830 | 80 | 169 | 7.8 | 12.2 | 0.00 | 0.00 | 0.00 | 53 | 1010.0 |
| 20260504193005 | 79 | 153 | 6.1 | 12.2 | 0.00 | 0.00 | 0.00 | 50 | 1010.4 |
| 20260504192930 | 79 | 161 | 7.0 | 13.9 | 0.00 | 0.00 | 0.00 | 50 | 1010.2 |